RH
37 35 35 38 42 47 53 57 58 57 56 60 63 65 67 65 61 58 55 55 55 55 56 53 52 51 51 51 51 51 51 50 50 50 50 51 53 53 54 55 57 59 63 66 67 67 68 69 70 70 70 71 72 73 73 72 71 71 74 75 75 74 72 66 56 46 41 41 44 48 53 55 55 54 54 57 60 63 64 65 64 62 59 53 46 41
38 37 37 38 39 42 48 52 55 55 55 56 58 60 62 63 62 60 57 54 53 54 55 54 52 51 49 49 49 49 48 48 48 48 48 48 50 51 52 54 55 57 58 60 61 62 64 65 66 66 66 68 68 67 66 65 63 62 62 65 67 68 68 62 54 46 41 42 45 50 55 57 58 57 57 59 61 63 64 64 63 62 60 54 48 41
40 40 40 40 40 41 44 47 50 51 53 54 55 55 56 59 60 61 59 57 55 54 53 52 50 48 46 44 44 43 43 43 43 43 44 44 45 47 49 51 53 54 55 56 57 57 58 58 59 59 60 61 61 60 59 57 56 55 54 56 58 61 62 59 54 49 46 46 49 53 58 59 60 60 60 61 62 63 63 62 61 59 56 52 46 40
43 43 43 44 44 44 45 45 45 47 50 52 53 53 53 55 58 60 61 60 58 56 52 49 47 44 42 40 39 38 38 38 38 38 39 39 41 43 45 48 49 50 50 50 51 51 51 51 51 51 51 51 51 51 51 51 51 50 50 51 54 57 59 59 57 55 52 52 54 56 60 61 62 62 62 62 62 61 60 59 57 54 51 47 42 37
47 46 46 48 48 48 48 47 46 46 48 51 52 52 52 55 57 59 62 63 61 58 53 48 44 40 38 36 35 34 33 32 32 33 33 34 35 38 41 43 44 45 45 45 46 46 46 45 45 44 43 42 41 41 42 43 44 45 46 48 50 52 55 56 56 55 54 54 55 57 59 60 61 61 60 60 58 56 54 52 50 47 44 40 37 33
51 51 50 52 52 52 52 51 49 48 49 52 54 55 56 58 59 60 61 63 63 61 56 49 43 37 34 32 31 29 28 27 27 27 27 28 29 32 36 38 40 42 44 44 44 43 42 41 40 39 37 36 35 34 34 35 36 38 39 42 44 46 47 48 49 50 50 51 51 52 53 54 55 54 54 53 52 49 47 44 41 39 36 34 32 30
57 55 54 55 55 56 57 57 55 54 55 58 59 60 62 61 61 61 62 63 63 62 58 51 43 37 32 30 29 28 27 26 25 24 24 24 25 27 30 33 36 39 42 43 43 42 40 38 36 34 33 32 32 31 31 31 32 33 34 36 38 39 40 41 42 43 44 44 45 45 45 45 45 45 45 44 43 42 40 37 35 33 31 30 29 27
62 59 57 57 59 61 64 64 62 61 62 63 64 65 65 64 63 63 63 64 63 62 60 54 46 38 32 30 28 28 27 26 25 24 23 23 23 24 26 28 31 34 38 40 40 39 37 35 34 33 33 33 33 32 32 32 32 33 34 35 36 37 38 38 38 38 39 39 39 39 39 38 38 38 37 37 37 36 35 33 32 30 29 28 27 26
69 66 62 60 62 66 69 68 68 68 67 67 67 67 66 66 65 64 65 65 64 63 61 56 48 41 34 31 29 28 27 26 25 24 22 22 22 22 24 25 28 30 34 35 36 36 35 34 34 35 36 37 37 38 38 38 38 38 38 39 40 40 40 40 40 39 39 39 38 38 37 36 36 35 34 34 33 33 32 31 30 29 28 27 26 24
75 72 70 67 66 67 70 70 70 71 71 71 70 70 69 68 67 67 67 66 65 64 62 57 51 44 36 32 30 28 27 26 25 24 22 22 22 22 23 25 26 28 30 32 33 33 34 35 36 38 40 41 42 43 43 43 43 43 43 44 44 44 43 43 42 42 41 40 40 39 38 37 36 34 33 33 32 31 30 29 29 27 26 25 24 23
78 77 76 74 71 68 67 68 71 73 74 73 73 73 72 70 69 69 68 67 66 65 62 58 52 46 39 34 31 30 29 27 26 25 24 23 23 23 24 24 25 26 28 29 31 32 34 35 38 40 42 44 45 46 46 46 46 46 46 46 45 45 45 44 43 42 42 41 40 39 37 36 35 34 33 32 31 30 29 28 27 26 25 24 23 22
79 80 80 79 77 74 71 70 72 74 76 75 76 76 75 73 72 71 70 68 67 65 62 57 53 47 41 37 34 33 32 31 30 28 27 26 25 25 25 25 26 26 28 29 31 33 34 36 38 40 42 43 44 45 45 46 46 46 46 46 45 45 44 43 42 42 41 40 39 38 36 35 34 33 32 31 30 29 28 27 26 25 24 23 22 21
78 80 81 81 81 80 79 77 76 75 76 77 77 78 77 75 74 73 71 69 67 64 61 58 54 49 44 41 39 38 37 36 35 33 31 30 29 28 28 28 28 29 29 31 32 34 36 37 39 40 41 42 43 43 44 44 44 44 44 44 44 43 43 42 41 41 40 39 38 37 36 35 34 33 32 31 29 28 27 26 25 25 24 23 22 21
78 79 81 81 82 83 83 82 81 79 77 77 76 76 76 75 74 73 72 70 68 64 61 58 55 51 47 45 43 43 42 42 41 40 38 36 34 34 33 32 32 33 33 34 34 36 37 39 40 41 41 42 42 43 43 43 43 43 43 43 43 43 42 42 41 40 40 39 38 37 36 35 34 33 32 31 30 29 28 27 26 25 25 24 23 23
81 80 81 81 82 83 84 84 83 82 80 77 75 73 73 73 73 72 70 71 69 66 63 60 57 54 51 49 47 47 47 48 48 47 45 42 40 39 38 38 37 37 37 37 38 39 40 41 42 43 43 44 44 44 44 44 45 44 44 44 44 43 43 42 41 40 40 39 38 38 37 36 35 34 33 32 31 30 29 28 27 27 26 26 25 24
84 83 81 80 79 80 80 82 83 83 82 81 79 77 75 75 74 73 71 72 70 68 64 62 60 58 55 53 52 52 52 52 52 52 50 48 45 43 42 42 42 42 42 42 42 42 43 44 44 45 45 46 46 46 46 46 46 45 45 45 44 44 43 42 41 41 40 39 39 38 37 37 36 34 34 32 31 31 30 29 28 28 27 27 26 26
84 84 83 81 79 77 75 77 78 80 81 81 82 81 81 80 79 77 75 74 72 70 66 64 63 63 62 60 59 58 57 56 56 54 53 52 49 47 45 45 45 45 45 45 45 46 46 47 47 47 48 47 47 47 47 47 47 46 46 45 44 43 43 42 41 41 40 39 39 38 38 37 36 35 34 33 32 31 30 30 29 29 28 28 28 27
84 84 84 83 81 78 75 73 73 74 76 77 79 80 82 80 80 80 79 77 74 72 70 68 67 66 66 66 65 64 62 62 60 58 56 55 53 51 49 48 48 48 49 49 49 50 49 50 50 51 50 50 50 50 49 48 48 47 46 46 45 44 43 42 42 41 40 40 39 38 38 37 36 35 34 34 33 32 31 31 30 30 30 29 29 29
83 83 83 83 81 80 78 75 72 70 71 72 73 75 77 77 78 78 79 78 76 74 72 71 70 70 71 72 71 70 67 67 66 65 61 59 58 56 54 53 53 53 53 54 54 54 54 54 54 55 54 54 53 53 52 51 50 49 48 47 46 45 44 44 43 42 42 41 40 39 39 38 37 36 35 35 34 33 32 32 32 31 31 31 31 31
82 82 82 82 81 80 79 77 74 72 69 68 69 70 73 74 75 76 77 76 75 74 73 72 71 71 74 73 73 73 72 71 70 69 67 64 62 61 59 59 60 60 59 59 60 60 60 59 60 59 59 58 57 57 56 54 53 51 50 49 48 48 47 47 46 45 44 43 42 41 40 40 39 38 38 37 36 35 34 34 33 33 33 33 33 32
81 81 81 81 81 80 79 77 75 73 72 70 68 68 68 70 71 73 74 75 75 74 73 72 70 70 72 73 73 74 74 74 73 72 71 69 67 66 65 65 66 66 66 65 65 65 65 65 65 65 63 63 62 61 60 58 56 55 53 53 52 52 51 51 50 49 48 47 46 45 44 43 42 42 41 40 39 38 38 37 36 35 35 35 35 34
81 80 80 80 79 79 78 76 75 74 73 72 71 69 67 67 68 69 71 73 74 74 73 72 70 69 70 72 73 74 74 74 73 73 73 73 73 72 72 71 71 71 71 70 70 70 70 70 70 70 68 67 66 66 64 62 60 59 57 56 56 55 55 55 54 54 53 52 51 50 48 47 46 45 45 44 44 42 41 40 39 38 37 37 37 36
83 81 80 79 78 77 76 75 73 72 71 71 70 69 68 67 67 67 68 69 70 70 70 69 68 67 68 71 73 74 74 74 73 74 74 75 75 75 76 76 75 75 75 74 74 74 73 73 74 73 72 71 70 69 68 66 64 63 61 60 59 58 58 58 58 59 59 58 57 55 52 50 49 48 48 48 47 46 44 43 42 41 41 40 40 39
83 83 82 80 77 76 74 72 71 70 69 69 68 68 68 68 68 68 68 68 68 67 66 65 65 65 66 69 72 74 74 74 73 74 74 75 75 76 76 77 77 76 76 76 76 76 75 75 75 74 73 73 73 73 72 70 68 66 65 63 62 61 60 60 61 62 62 62 60 58 55 52 50 49 49 49 49 48 47 46 45 44 44 43 43 41
83 83 82 80 78 76 73 71 70 69 69 69 69 69 69 70 70 70 71 71 70 69 68 68 68 68 67 69 70 72 73 73 73 73 73 74 75 76 78 79 79 78 77 76 75 75 75 74 74 74 73 74 75 75 74 73 71 69 67 65 63 62 61 61 62 63 63 62 61 58 55 51 49 48 48 49 49 49 48 48 47 47 46 46 45 43
82 82 82 80 78 76 74 72 71 71 70 70 71 71 72 73 73 73 74 73 72 72 73 76 76 75 74 74 74 74 73 73 73 72 71 71 74 78 81 82 82 81 79 77 75 74 73 73 73 73 73 74 75 76 75 73 71 69 67 65 63 62 60 61 61 62 62 61 59 56 53 50 48 47 47 48 49 50 49 49 48 48 47 46 45 44
81 82 82 80 79 77 76 74 74 73 73 73 73 74 75 76 76 76 76 73 72 73 76 79 81 81 81 81 81 79 79 78 78 76 74 73 75 79 83 84 84 83 82 80 78 76 74 74 74 73 73 74 74 75 74 72 70 68 66 64 62 60 59 59 60 60 60 59 57 55 52 49 47 46 47 48 49 50 50 49 48 48 47 46 45 44
79 79 80 79 78 77 77 77 77 76 76 75 75 76 77 78 78 77 76 73 71 72 74 76 79 80 81 81 81 81 81 82 81 81 79 78 78 79 83 85 84 84 83 82 81 80 78 77 77 76 75 74 74 74 73 71 70 68 66 64 62 61 60 60 60 60 60 59 58 56 53 50 48 47 47 49 50 50 50 49 48 48 47 46 45 44
75 76 77 77 77 77 77 78 78 79 78 78 77 77 78 78 79 78 76 73 71 70 70 73 75 77 78 79 80 81 81 81 81 81 81 80 79 79 81 84 84 84 83 82 82 82 80 78 77 77 76 75 74 74 73 72 71 69 68 66 64 63 61 61 61 61 61 60 59 58 57 54 51 50 50 51 52 52 52 51 50 48 47 46 46 45
71 72 73 75 76 76 77 78 79 80 80 80 80 80 80 80 80 79 78 76 73 71 69 70 72 74 76 78 81 82 82 80 80 80 80 79 78 77 79 81 82 82 82 83 83 82 80 78 77 76 76 75 74 74 74 74 74 73 71 69 67 65 64 63 63 64 64 63 64 64 63 60 57 55 55 55 55 55 55 54 52 51 49 49 48 48
71 71 71 73 74 76 77 77 78 79 80 82 82 83 83 83 82 82 82 80 78 75 72 71 70 70 72 75 79 80 80 80 79 78 78 77 76 75 77 78 79 79 79 80 80 80 79 78 77 76 76 75 75 75 77 78 78 77 75 73 70 68 66 65 66 66 67 68 69 70 69 67 64 62 61 61 60 60 59 58 56 55 53 53 52 51
73 72 71 72 73 74 75 76 77 78 80 81 82 83 83 83 83 83 84 83 82 81 79 76 74 71 70 71 73 74 74 75 76 75 75 74 74 73 74 74 74 74 75 76 76 77 78 78 77 77 77 76 77 78 80 81 81 80 78 75 72 69 68 67 68 69 70 72 74 74 73 71 69 68 67 66 66 65 64 63 61 59 58 56 55 53
76 75 73 72 72 73 74 74 75 76 78 79 80 81 82 82 82 82 83 83 83 83 83 82 80 78 76 74 72 72 71 72 73 73 72 72 72 71 70 70 70 70 73 75 76 77 77 77 77 77 77 77 78 80 82 83 82 81 79 76 73 70 69 69 69 71 72 74 75 74 72 71 70 70 69 69 69 68 67 66 64 62 60 58 56 54
78 77 75 74 73 73 73 73 73 73 74 75 77 78 78 79 79 79 80 81 81 82 83 83 83 82 81 79 78 76 75 74 74 73 72 71 70 69 67 66 67 69 75 78 80 80 79 78 77 77 76 77 79 81 84 83 82 81 79 76 73 71 70 69 70 70 70 71 71 69 68 67 66 66 66 66 66 66 65 64 63 62 60 58 57 54
77 76 75 74 72 72 71 71 70 70 71 72 73 74 74 75 75 75 75 76 78 79 81 82 83 83 83 82 81 80 79 77 76 74 73 71 69 68 66 65 67 71 78 81 82 82 81 79 77 76 76 77 79 82 84 83 82 81 78 75 73 71 70 69 68 67 67 66 65 63 62 61 61 60 60 60 59 60 60 59 59 58 58 57 55 54
73 73 73 72 71 70 69 68 68 68 69 70 71 72 72 72 72 72 72 73 74 76 78 80 81 82 83 83 82 82 80 79 77 76 74 72 71 70 69 69 70 73 77 79 80 79 79 78 77 76 75 76 78 80 83 83 82 80 77 74 72 71 70 68 67 65 64 63 61 59 58 57 56 55 55 54 54 54 54 54 54 54 54 54 54 53
68 68 69 69 69 68 68 68 68 68 69 70 71 72 73 73 72 72 72 72 73 74 76 78 80 82 83 84 83 82 81 80 79 78 77 77 77 77 77 77 78 78 79 79 79 78 78 78 78 77 76 75 75 77 80 80 80 78 75 73 71 70 69 67 65 63 62 61 59 58 56 55 54 53 53 52 52 52 52 51 51 52 52 53 53 52
63 64 64 64 65 66 67 68 68 69 70 71 72 73 74 74 74 74 74 74 74 75 76 78 81 83 85 85 85 84 83 81 81 81 82 83 84 84 84 84 84 84 83 83 83 82 81 81 81 79 77 74 73 73 74 75 74 73 71 70 70 69 67 65 63 62 62 61 60 58 57 56 55 54 54 53 53 52 52 52 51 51 52 52 52 52
60 60 59 60 61 63 64 65 66 67 68 69 71 72 73 74 75 76 76 76 76 77 77 79 81 83 85 85 85 85 84 83 83 83 84 85 86 86 86 85 85 85 85 85 84 84 84 83 82 81 79 76 73 71 69 68 67 67 66 67 67 66 65 63 62 62 61 61 61 60 58 57 56 55 55 54 54 53 53 52 52 52 53 53 52 52
57 57 56 57 57 59 60 61 62 63 64 65 67 68 70 73 75 76 77 77 77 77 77 78 80 82 84 84 85 85 84 84 84 84 85 85 85 85 85 85 85 84 84 84 84 84 84 83 82 81 79 76 73 70 67 65 63 63 63 65 65 64 63 62 62 61 61 62 62 61 60 58 57 56 55 54 54 53 53 52 52 52 52 53 53 52
55 55 54 55 56 57 58 59 60 61 62 64 66 68 70 72 73 74 75 75 76 75 75 76 78 80 81 82 83 83 84 84 83 84 83 83 84 84 84 84 84 83 83 83 83 83 82 82 81 80 78 76 73 69 67 65 64 63 64 64 64 63 62 62 62 62 62 63 62 61 60 58 57 55 54 53 53 52 51 51 51 51 51 52 52 52
55 53 52 53 55 57 58 58 59 60 61 63 66 68 70 71 72 72 72 72 73 73 73 73 74 75 77 78 79 79 80 81 81 81 81 81 81 82 82 83 82 82 82 82 82 81 81 80 78 76 75 73 72 70 69 68 66 66 66 65 65 64 63 63 63 63 64 63 62 61 59 57 56 54 52 52 51 50 50 50 50 50 50 51 51 50
53 51 49 51 52 54 56 57 59 61 62 64 66 68 68 69 69 70 70 70 69 69 69 70 70 70 71 73 73 74 74 75 76 77 78 78 79 79 80 80 80 80 81 81 81 80 78 76 74 72 70 69 69 69 69 69 68 68 67 66 66 65 64 63 63 63 63 62 61 59 57 55 53 52 50 49 49 48 48 48 48 49 50 50 50 50
54 50 48 48 49 50 53 56 59 62 64 66 67 68 68 68 69 69 68 68 67 67 66 66 67 67 68 68 69 69 70 71 72 73 74 75 76 76 76 76 76 76 77 77 77 76 75 73 71 69 67 67 66 66 66 66 66 66 65 65 64 63 61 61 61 61 60 59 58 56 55 53 51 50 48 47 46 46 46 47 48 48 49 49 49 49
57 53 49 48 48 49 52 56 60 62 65 66 67 68 68 68 68 68 68 67 67 66 65 65 65 65 66 66 66 66 66 67 67 68 69 70 71 71 72 72 71 71 71 72 72 71 70 69 67 66 65 65 65 65 64 64 63 63 62 62 61 60 60 59 59 58 58 57 55 54 52 51 49 48 47 46 45 45 46 47 48 49 50 50 49 48
61 58 55 53 52 53 56 59 61 64 65 66 67 68 68 68 68 68 68 68 67 66 66 65 65 65 65 64 64 63 64 64 64 65 65 66 67 67 68 68 68 67 67 67 66 66 65 65 64 63 62 62 63 63 63 62 62 61 60 59 58 58 57 57 56 55 55 55 54 52 51 50 49 48 47 46 45 45 46 48 49 50 51 51 50 48
63 62 61 60 59 60 61 62 63 64 65 65 66 66 67 67 68 68 68 67 67 66 66 65 65 65 65 64 63 63 63 63 62 62 62 63 63 64 65 65 65 65 65 64 64 63 62 62 62 61 61 61 61 61 61 60 60 60 59 59 58 58 57 57 56 56 55 55 54 53 52 52 51 50 49 48 47 48 48 49 51 51 52 51 49 47
63 63 62 62 62 62 62 62 63 63 63 64 64 65 66 66 67 67 67 66 66 66 65 65 65 65 65 64 64 63 63 62 62 61 61 61 61 61 62 63 63 63 63 63 62 62 61 61 60 61 61 61 61 61 60 60 60 60 60 59 59 59 59 58 58 58 58 57 57 56 55 55 54 53 51 51 50 50 51 52 52 52 52 51 48 45
64 63 62 61 61 61 61 61 61 62 62 63 63 63 64 65 65 65 65 65 65 64 64 64 64 64 64 63 62 62 61 61 60 60 60 60 60 60 60 60 61 61 61 61 61 61 60 60 60 60 60 60 61 61 60 60 59 60 60 60 60 60 61 60 60 60 60 60 59 58 57 57 56 56 55 54 53 53 53 53 53 53 52 49 46 43
66 65 63 61 60 59 59 59 59 60 60 61 61 62 62 62 63 63 63 63 63 63 62 62 62 62 62 61 61 60 60 59 59 58 58 59 59 59 59 59 58 59 59 59 59 60 60 60 60 60 60 60 61 61 61 60 60 59 60 60 60 60 61 61 61 61 61 61 60 59 59 59 58 57 57 56 55 55 54 54 53 52 49 46 43 40
68 66 65 63 61 60 59 58 58 58 59 59 60 61 61 61 61 62 62 62 61 61 60 59 59 59 58 58 57 57 57 57 56 56 56 57 57 57 57 57 57 57 57 58 58 59 60 60 61 61 62 62 62 62 63 62 61 60 59 59 59 59 60 60 60 61 61 61 61 61 61 60 59 58 57 56 56 56 55 54 52 48 44 41 39 37